SAUDISAT 5B

Last updated on Mon Oct 14 2024 00:02:25 GMT+0000 (Coordinated Universal Time)

1 43833U 18102C 24287.50622262 .00010305 00000+0 49534-3 0 9997 2 43833 97.4008 352.3921 0013917 127.3038 232.9468 15.18917463322625
UTC large
Height (km)
Speed (km/s)
/
Latitude / Longitude
Inclination (degrees)
Orbital Period (minutes)
Azimuth
Elevation
Range (km)
Doppler Factor

Next 0 passes for location: London (51.5072 / 0.1276)

Sorry there are no passes over London.